Sawtelle Peak

Sawtelle summit stationLocated on Sawtelle Peak in the Centennials. Use the Sawtelle SNOdar or the nearest SNOTEL station for snow depth data: White Elephant. The data on this page is also available to view at dataGarrison.com.

 

Elevation
9885ft
Jump to table bottom
Date Time Temperature
deg F
RH, % Wind Speed Wind Gust Wind Direction Pressure Light
02/24/24 02:00 14.4 94 23 44 NW - 312 703.160 2
02/24/24 01:00 14.6 94 31 61 NW - 293 703.600 4
02/24/24 00:00 13.8 93 33 58 W - 288 703.560 4
02/23/24 23:00 14.4 93 37 48 W - 286 702.980 2
02/23/24 22:00 13.3 93 31 52 W - 289 704.380 4
02/23/24 21:00 14.3 93 25 53 W - 286 704.480 3
02/23/24 20:00 14.4 93 27 72 W - 282 704.580 1
02/23/24 19:00 13.8 94 17 51 W - 277 705.300 1
02/23/24 18:00 12.9 94 24 38 W - 282 705.560 220
02/23/24 17:00 13.8 80 20 33 W - 285 705.760 114,675
02/23/24 16:00 15.5 81 21 33 W - 282 706.260 337,395
02/23/24 15:00 16.6 80 19 29 W - 288 706.500 550,962
02/23/24 14:00 18.3 80 13 33 NW - 298 706.760 750,291
02/23/24 13:00 19.8 75 10 20 NW - 293 707.420 900,805
02/23/24 12:00 21.3 74 7 26 NW - 303 707.700 1,051,319
02/23/24 11:00 25.0 63 7 38 NW - 309 707.840 1,181,493
02/23/24 10:00 22.0 68 8 53 NW - 305 707.980 1,140,814
02/23/24 09:00 16.9 80 12 41 NW - 295 707.740 1,108,270
02/23/24 08:00 16.1 85 14 50 NW - 299 707.320 819,446
02/23/24 07:00 11.9 93 7 43 NW - 316 707.260 35,351
02/23/24 06:00 11.3 92 4 37 NW - 326 707.280 5
02/23/24 05:00 11.5 94 4 24 NW - 331 707.240 1
02/23/24 04:00 11.6 91 7 32 NW - 320 707.100 1
02/23/24 03:00 11.8 90 10 31 NW - 313 707.220 1
02/23/24 02:00 12.6 87 11 42 NW - 317 707.260 1
02/23/24 01:00 13.4 85 11 31 NW - 319 707.260 2
02/23/24 00:00 13.8 88 12 31 NW - 314 707.440 2
02/22/24 23:00 13.6 83 14 49 NW - 313 707.360 1
02/22/24 22:00 13.4 91 10 41 NW - 317 707.100 3
02/22/24 21:00 14.3 93 8 36 NW - 320 707.320 4
02/22/24 20:00 14.9 94 8 30 NW - 314 706.840 4
02/22/24 19:00 15.5 92 10 26 NW - 312 707.060 2
02/22/24 18:00 15.3 90 5 23 NW - 326 706.360 122
02/22/24 17:00 15.8 92 7 25 NW - 319 706.560 61,538
02/22/24 16:00 17.4 93 10 24 NW - 316 706.260 404,516
02/22/24 15:00 19.6 84 13 34 NW - 314 706.240 599,778
02/22/24 14:00 20.1 89 8 26 NW - 309 706.320 522,487
02/22/24 13:00 21.1 85 7 17 NW - 302 706.720 729,952
02/22/24 12:00 21.6 85 6 15 NW - 309 706.920 599,778
02/22/24 11:00 26.5 70 4 20 NW - 326 706.800 807,243
02/22/24 10:00 19.9 81 3 20 N - 355 706.500 1,230,309
02/22/24 09:00 20.0 79 5 15 NW - 319 706.040 982,164
02/22/24 08:00 15.2 92 4 11 NW - 326 705.660 136,032
02/22/24 07:00 14.8 94 6 17 NW - 314 705.300 17,490
02/22/24 06:00 14.1 94 1 12 NW - 331 704.900 3
02/22/24 05:00 15.4 95 6 16 NW - 303 704.760 0
02/22/24 04:00 16.0 95 3 16 NW - 312 704.500 1
02/22/24 03:00 16.5 95 5 15 NW - 310 704.420 1
02/22/24 02:00 16.6 96 8 14 NW - 307 704.460 1
02/22/24 01:00 16.4 95 5 13 NW - 319 704.240 1